Location: Doverdale
(52.2833°N, 2.2000°W)
Time: 10:57:18
(UTC+00:00)

Cosmos 2227 - Pass Details

Date: 29 October 2020
Orbit: 836 x 860 km, 71.0° (Epoch: 24 November)

Event Time Altitude Azimuth Distance (km) Brightness Sun altitude
Rises 19:29:47 0° 328° (NNW) 3,399 7.9 -25.7°
Reaches altitude 10° 19:32:14 10° 328° (NNW) 2,460 7.1 -26.1°
Maximum altitude 19:37:53 83° 242° (WSW) 850 4.1 -26.9°
Enters shadow 19:38:30 71° 173° (S) 887 4.1 -27.0°
